Weather History for KLOR - November, 2012

Change the Weather History Date:

Sunday, November 18, 2012

  Actual Average (KDHN) Record (KDHN)
Temperature  
Mean Temperature 54 °F 58 °F  
Max Temperature 69 °F 70 °F 84 °F (1938)
Min Temperature 39 °F 46 °F 26 °F (1951)
Degree Days  
Heating Degree Days 11 8  
Month to date heating degree days 105  
Since 1 July heating degree days 164  
Growing Degree Days 4 (Base 50)    
Moisture  
Dew Point 40 °F    
Average Humidity 67    
Maximum Humidity 93    
Minimum Humidity 39    
Precipitation  
Precipitation 0.00 in 0.16 in 1.73 in (1968)
Month to date precipitation 2.12  
Year to date precipitation 47.51  
Sea Level Pressure  
Sea Level Pressure 30.28 in    
Wind  
Wind Speed 3 mph (NE)    
Max Wind Speed 8 mph    
Max Gust Speed 16 mph    
Visibility 10 miles    
Events      
T = Trace of Precipitation, MM = Missing Value Source: NWS Daily Summary

Daily Weather History Graph

Daily Weather History Graph

Search for Another Location

Airport or City:

Trip Planner

Search our weather history database for the weather conditions in past years. The results will help you decide how hot, cold, wet, or windy it might be!

Date:

Astronomy

Nov. 18, 2012 Rise Set
Actual Time 6:13 AM CST 4:42 PM CST
Civil Twilight 5:47 AM CST 5:08 PM CST
Nautical Twilight 5:18 AM CST 5:38 PM CST
Astronomical Twilight 4:49 AM CST 6:07 PM CST
Moon 10:43 AM CST (11/18) 9:56 PM CST (11/18)
Length of Visible Light 11h 21m
Length of Day
10h 29m
Waxing Crescent, 30% of the Moon is Illuminated
Nov 18
Waxing Crescent
Nov 20
First Quarter
Nov 28
Full
Dec 6
Last Quarter
Dec 13
New

Hourly Weather History & Observations

Time (CST) Temp. Windchill Dew Point Humidity Pressure Visibility Wind Dir Wind Speed Gust Speed Precip Events Conditions
12:53 AM 46.0 °F 44.8 °F 35.1 °F 66% 30.29 in 10.0 mi North 3.5 mph - N/A   Clear
1:53 AM 39.9 °F - 37.0 °F 89% 30.29 in 10.0 mi Calm Calm - N/A   Clear
2:53 AM 42.1 °F 39.2 °F 35.1 °F 76% 30.27 in 10.0 mi NNE 4.6 mph - N/A   Clear
3:53 AM 39.9 °F 37.8 °F 35.1 °F 83% 30.28 in 10.0 mi NNE 3.5 mph - N/A   Clear
4:53 AM 41.0 °F 39.0 °F 36.0 °F 82% 30.30 in 10.0 mi NE 3.5 mph - N/A   Mostly Cloudy
5:53 AM 45.0 °F - 35.1 °F 68% 30.30 in 10.0 mi Calm Calm - N/A   Overcast
6:53 AM 46.0 °F - 36.0 °F 68% 30.32 in 10.0 mi Calm Calm - N/A   Clear
7:53 AM 51.1 °F - 36.0 °F 56% 30.32 in 10.0 mi ENE 6.9 mph - N/A   Clear
8:53 AM 55.0 °F - 37.9 °F 53% 30.32 in 10.0 mi East 6.9 mph 16.1 mph N/A   Partly Cloudy
9:53 AM 57.9 °F - 39.0 °F 49% 30.32 in 10.0 mi Variable 5.8 mph - N/A   Clear
10:53 AM 62.1 °F - 39.9 °F 44% 30.30 in 10.0 mi Variable 4.6 mph - N/A   Clear
11:53 AM 64.9 °F - 41.0 °F 42% 30.27 in 10.0 mi Variable 3.5 mph - N/A   Clear
12:53 PM 66.9 °F - 41.0 °F 39% 30.25 in 10.0 mi Variable 4.6 mph - N/A   Clear
1:53 PM 68.0 °F - 42.1 °F 39% 30.24 in 10.0 mi NNE 8.1 mph - N/A   Clear
2:53 PM 69.1 °F - 43.0 °F 39% 30.23 in 10.0 mi NNE 5.8 mph - N/A   Clear
3:53 PM 68.0 °F - 43.0 °F 40% 30.23 in 10.0 mi NNE 4.6 mph - N/A   Clear
4:53 PM 57.9 °F - 45.0 °F 62% 30.24 in 10.0 mi North 3.5 mph - N/A   Clear
5:53 PM 54.0 °F - 46.0 °F 75% 30.25 in 10.0 mi Calm Calm - N/A   Clear
6:53 PM 51.1 °F - 46.9 °F 86% 30.26 in 10.0 mi Calm Calm - N/A   Clear
7:53 PM 48.0 °F - 45.0 °F 89% 30.26 in 10.0 mi Calm Calm - N/A   Clear
8:53 PM 48.0 °F - 45.0 °F 89% 30.27 in 10.0 mi Calm Calm - N/A   Clear
9:53 PM 46.0 °F - 44.1 °F 93% 30.27 in 10.0 mi Calm Calm - N/A   Clear
10:53 PM 46.0 °F - 43.0 °F 89% 30.27 in 10.0 mi Calm Calm - N/A   Clear
11:53 PM 44.1 °F - 42.1 °F 93% 30.28 in 10.0 mi Calm Calm - N/A   Clear